Home   Weather   Tangier   Past weeks

Flag for Morocco Past Weather in Tangier, Morocco — Yesterday and Last 2 Weeks

Now
68 °F

Broken clouds.


Feels Like: 68 °F
Forecast: 55 / 69 °F
Wind: 13 mph from Northwest

Location: Tanger Aerodrome

Current Time: Apr 30, 2017 at 1:55:44 pm

Latest Report: Apr 30, 2017 at 1:30 pm


Visibility: 5 mi

Pressure: 30.09 "Hg

Humidity: 53%

Dew Point: 50 °F

Location of TangierLocation

Past Weather in Tangier — Graph

°F

Tangier Temperature Yesterday

Maximum temperature yesterday: 68 °F (at 12:30 pm)
Minimum temperature yesterday: 59 °F (at 7:30 am)
Average temperature yesterday: 64 °F

High & Low Weather Summary for the Past Weeks

 TemperatureHumidityPressure
High77 °F (Apr 17, 1:30 pm)94% (Apr 15, 9:30 pm)30.18 "Hg (Apr 15, 9:30 pm)
Low52 °F (Apr 16, 12:30 am)36% (Apr 18, 5:30 pm)29.77 "Hg (Apr 18, 3:30 pm)
Average65 °F72%29.94 "Hg
* Reported Apr 15 12:00 pm — Apr 30 12:30 pm, Tangier, Weather by CustomWeather, © 2017

Note: Actual official high and low records may vary slightly from our data, if they occured in-between our weather recording intervals... More about our weather records

Advertising

Tangier Weather History for the Previous 24 Hours

Scroll right to see more
 ConditionsComfort  
Time TempWeatherWind HumidityBarometerVisibility
12:30 pm
Sun, Apr 30
66 °FBroken clouds.12 mph56%30.09 "Hg5 mi
12:00 pm64 °FBroken clouds.12 mph60%30.09 "Hg5 mi
11:30 am66 °FPartly sunny.12 mph52%30.09 "Hg5 mi
11:00 am66 °FPartly sunny.10 mph56%30.09 "Hg5 mi
10:30 am66 °FBroken clouds.12 mph56%30.09 "Hg5 mi
10:00 am66 °FBroken clouds.10 mph60%30.09 "Hg5 mi
9:30 am64 °FBroken clouds.10 mph60%30.09 "Hg5 mi
9:00 am64 °FPartly sunny.8 mph60%30.07 "Hg5 mi
8:30 am63 °FPartly sunny.7 mph68%30.07 "Hg5 mi
8:00 am61 °FBroken clouds.9 mph72%30.07 "Hg5 mi
7:30 am61 °FBroken clouds.8 mph72%30.07 "Hg5 mi
7:00 am61 °FBroken clouds.8 mph72%30.07 "Hg5 mi
6:30 am61 °FBroken clouds.8 mph72%30.04 "Hg4 mi
6:00 am61 °FBroken clouds.8 mph72%30.04 "Hg4 mi
5:30 am61 °FPartly cloudy.10 mph72%30.04 "Hg4 mi
5:00 am61 °FPartly cloudy.9 mph72%30.04 "Hg4 mi
4:30 am61 °FPartly cloudy.8 mph77%30.04 "Hg4 mi
4:00 am61 °FPartly cloudy.9 mph77%30.01 "Hg4 mi
3:30 am63 °FPartly cloudy.8 mph73%30.01 "Hg4 mi
3:00 am61 °FPartly cloudy.10 mph77%30.01 "Hg4 mi
2:30 am61 °FPartly cloudy.9 mph77%30.04 "Hg4 mi
2:00 am63 °FPartly cloudy.7 mph77%30.01 "Hg4 mi
1:30 am63 °FPartly cloudy.7 mph83%30.01 "Hg4 mi
1:00 am63 °FPartly cloudy.6 mph83%30.01 "Hg5 mi
12:30 am63 °FPassing clouds.5 mph83%30.01 "Hg5 mi
12:00 am63 °FPassing clouds.6 mph83%30.01 "Hg5 mi
11:30 pm
Sat, Apr 29
63 °FPassing clouds.5 mph83%30.01 "Hg5 mi
11:00 pm63 °FPassing clouds.6 mph83%30.01 "Hg5 mi
10:30 pm63 °FPassing clouds.6 mph83%30.01 "Hg5 mi
10:00 pm63 °FPassing clouds.5 mph88%29.98 "Hg5 mi
9:30 pm63 °FPassing clouds.6 mph88%29.98 "Hg5 mi
8:30 pm64 °FPassing clouds.5 mph78%29.95 "Hg5 mi
8:00 pm64 °FPassing clouds.5 mph83%29.95 "Hg5 mi
7:30 pm64 °FPassing clouds.5 mph83%29.95 "Hg5 mi
7:00 pm64 °FPartly sunny.6 mph83%29.95 "Hg5 mi
6:30 pm66 °FPartly sunny.5 mph73%29.95 "Hg5 mi
6:00 pm66 °FBroken clouds.6 mph73%29.95 "Hg5 mi
5:30 pm68 °FBroken clouds.6 mphN/A29.95 "Hg5 mi
5:00 pm68 °FBroken clouds.7 mph69%29.95 "Hg5 mi
4:00 pm68 °FBroken clouds.7 mph69%29.95 "Hg5 mi
3:30 pm66 °FBroken clouds.7 mph73%29.95 "Hg5 mi
3:00 pm68 °FBroken clouds.6 mph73%29.95 "Hg5 mi
2:00 pm68 °FBroken clouds.7 mph69%29.95 "Hg5 mi
1:30 pm68 °FBroken clouds.7 mph73%29.95 "Hg5 mi
1:00 pm68 °FBroken clouds.7 mph73%29.95 "Hg5 mi
Weather by CustomWeather, © 2017

See weather overviewHow to use our weather pages